Flag for Moldova Weather past 2 weeks in Bălți, Moldova

Now
34 °F

Chilly.


Feels Like: 28 °F
Forecast: 30 / 37 °F
Wind: 7 mph from North

Location: Baltsi-Leadoveni - The North of Moldova

Current Time: Dec 17, 2014 at 11:42:00 PM

Latest Report: Dec 17, 2014 at 11:00 PM


Visibility: 3 mi

Pressure: 29.92 "Hg

Humidity: 100%

Dew point: 34 °F

Location of BălțiLocation

Historic Weather in Bălți — Graph

°F

Bălți temperature yesterday

Maximum temperature yesterday: 37 °F (at 10:00 PM)
Minimum temperature yesterday: 28 °F (at 6:00 AM)
Average temperature yesterday: 32 °F

Past Weeks' High & Low Weather Summary

 TemperatureHumidityPressure
High43 °F (Dec 14, 12:00 PM)100% (Dec 5, 10:30 PM)30.48 "Hg (Dec 5, 10:30 PM)
Low19 °F (Dec 3, 5:00 AM)51% (Dec 6, 5:00 AM)29.77 "Hg (Dec 17, 2:00 PM)
Average31 °F88%30.15 "Hg
* Reported Dec 2 10:00 PM — Dec 17 10:30 PM, Bălți, Weather by CustomWeather, © 2014

Note: Actual official high and low records may vary slightly from our data, if they occured in-between our weather recording intervals... More about our weather records

Advertising

Bălți weather history for previous 24 hours

 ConditionsComfort  
Time TempWeatherWind HumidityBarometerVisibility
10:30 PM
Dec 17
34 °FChilly.8 mph100%29.92 "Hg2 mi
10:00 PM34 °FChilly.7 mph100%29.89 "Hg1 mi
9:30 PM34 °FChilly.6 mph100%29.89 "Hg1 mi
9:00 PM34 °FChilly.8 mph100%29.89 "Hg1 mi
8:00 PM34 °FChilly.7 mph100%29.89 "Hg1 mi
7:00 PM34 °FChilly.9 mph100%29.86 "Hg0 mi
6:00 PM36 °FChilly.10 mph93%29.83 "Hg0 mi
5:30 PM36 °FChilly.8 mph100%29.83 "Hg1 mi
5:00 PM37 °FChilly.7 mph93%29.83 "Hg2 mi
4:00 PM37 °FFog.6 mph100%29.80 "Hg3 mi
3:00 PM37 °FLow clouds.7 mph100%29.77 "Hg4 mi
2:00 PM37 °FFog.9 mph100%29.77 "Hg3 mi
1:00 PM37 °FFog.9 mph100%29.80 "Hg2 mi
12:00 PM37 °FFog.13 mph100%29.83 "Hg2 mi
11:00 AM37 °FDense fog.14 mph93%29.83 "Hg1 mi
10:30 AM37 °FFog.16 mph100%29.86 "Hg1 mi
10:00 AM37 °FFog.13 mph100%29.86 "Hg1 mi
9:00 AM37 °FFog.10 mph93%29.86 "Hg2 mi
8:00 AM37 °FChilly.10 mph93%29.86 "Hg2 mi
7:00 AM36 °FChilly.9 mph100%29.89 "Hg2 mi
6:00 AM37 °FChilly.12 mph93%29.89 "Hg1 mi
5:30 AM37 °FChilly.14 mph93%29.89 "Hg2 mi
5:00 AM37 °FChilly.13 mph93%29.89 "Hg1 mi
4:30 AM37 °FChilly.7 mph93%29.89 "Hg3 mi
4:00 AM37 °FChilly.8 mph93%29.89 "Hg3 mi
3:00 AM37 °FChilly.12 mph100%29.92 "Hg3 mi
1:00 AM39 °FChilly.12 mph93%29.95 "Hg4 mi
12:00 AM37 °FChilly.16 mph100%29.98 "Hg3 mi
11:00 PM
Dec 16
37 °FChilly.13 mph100%29.98 "Hg3 mi
Weather by CustomWeather, © 2014

See weather overviewHow to use our weather pages